EWG69L EDDS-EDDL

Flight info

Callsign EWG69L
Flight time N/A
Altitude 23000
Route TAGIK2H TAGIK Z3 ABUMO N850 GISEM Z505 ARPEG Z850 ADEMI T854 DOMUX DOMUX1A
Aircraft A319/M-SDE3FGHIRWY/LB1

Departure

Time N/A
Airport Stuttgart Airport (EDDS)

Arrival

Time 2026-05-05 08:12
Airport Düsseldorf Airport (EDDL)
Time Latitude Longitude Altitude Speed Heading
2026-05-05 08:05 51.26306 7.13649 5122 ft 229 kts 277°
2026-05-05 08:05 51.26827 7.11287 5123 ft 230 kts 303°
2026-05-05 08:05 51.27947 7.09471 5127 ft 232 kts 323°
2026-05-05 08:05 51.29271 7.07945 5119 ft 232 kts 329°
2026-05-05 08:06 51.30777 7.07186 5120 ft 232 kts 357°
2026-05-05 08:06 51.32361 7.07625 5123 ft 233 kts 25°
2026-05-05 08:06 51.33638 7.09188 5125 ft 234 kts 51°
2026-05-05 08:06 51.34677 7.11194 4971 ft 235 kts 40°
2026-05-05 08:07 51.36160 7.12108 4603 ft 231 kts 360°
2026-05-05 08:07 51.37701 7.11492 4235 ft 229 kts 333°
2026-05-05 08:07 51.38951 7.09953 3858 ft 227 kts 310°
2026-05-05 08:07 51.39711 7.07776 3485 ft 225 kts 285°
2026-05-05 08:08 51.39866 7.05308 3154 ft 222 kts 270°
2026-05-05 08:08 51.39881 7.02840 3120 ft 222 kts 270°
2026-05-05 08:08 51.39713 7.00405 3118 ft 221 kts 250°
2026-05-05 08:08 51.38925 6.98297 3109 ft 222 kts 233°
2026-05-05 08:09 51.37989 6.96329 2887 ft 221 kts 233°
2026-05-05 08:09 51.37062 6.94377 2613 ft 219 kts 233°
2026-05-05 08:09 51.36155 6.92460 2330 ft 211 kts 233°
2026-05-05 08:09 51.35294 6.90643 2089 ft 196 kts 233°
2026-05-05 08:10 51.34497 6.88960 1807 ft 182 kts 233°
2026-05-05 08:10 51.33765 6.87418 1569 ft 166 kts 233°
2026-05-05 08:10 51.33123 6.86045 1400 ft 144 kts 233°
2026-05-05 08:10 51.32552 6.84805 1131 ft 134 kts 233°
2026-05-05 08:11 51.31991 6.83645 937 ft 130 kts 231°
2026-05-05 08:11 51.31440 6.82508 751 ft 129 kts 232°
2026-05-05 08:11 51.30893 6.81382 585 ft 128 kts 232°
2026-05-05 08:11 51.30362 6.80247 433 ft 128 kts 233°
2026-05-05 08:12 51.29827 6.79114 268 ft 127 kts 232°
2026-05-05 08:12 51.29297 6.77998 142 ft 121 kts 233°
2026-05-05 08:12 51.28865 6.77103 133 ft 78 kts 232°
2026-05-05 08:12 51.28624 6.76599 135 ft 44 kts 233°
2026-05-05 08:13 51.28454 6.76229 132 ft 42 kts 233°
2026-05-05 08:13 51.28306 6.76043 134 ft 16 kts 190°
2026-05-05 08:13 51.28221 6.76061 136 ft 13 kts 158°
2026-05-05 08:13 51.28156 6.76078 137 ft 10 kts 208°
2026-05-05 08:14 51.28129 6.76028 137 ft 0 kts 233°
2026-05-05 08:14 51.28128 6.76026 137 ft 0 kts 233°
2026-05-05 08:14 51.28127 6.76023 137 ft 2 kts 233°
2026-05-05 08:14 51.28104 6.75974 137 ft 8 kts 233°
2026-05-05 08:15 51.28057 6.75873 137 ft 14 kts 233°
2026-05-05 08:15 51.27986 6.75821 137 ft 10 kts 185°
2026-05-05 08:15 51.27936 6.75817 137 ft 6 kts 180°
2026-05-05 08:15 51.27913 6.75868 137 ft 1 kts 90°
2026-05-05 08:16 51.27913 6.75891 137 ft 4 kts 89°
2026-05-05 08:16 51.27913 6.75928 137 ft 0 kts 91°